GLOBALSTAR M069 1 31573U 07020C 26118.75721064 -.00000100 00000+0 -69284-4 0 9993 2 31573 52.0058 32.0299 0002407 49.3961 338.9844 12.23469863872753 GLOBALSTAR M072 1 31574U 07020D 26118.63552020 -.00000090 00000+0 -76598-4 0 9999 2 31574 51.9929 232.1662 0001471 190.2980 183.3280 11.91657392869070 GLOBALSTAR M066 1 32265U 07048C 26118.51074287 -.00000104 00000+0 -79495-4 0 9993 2 32265 51.9581 200.5205 0004371 294.6371 78.6280 12.30387749854114 GLOBALSTAR M079 1 37188U 10054A 26118.63571764 -.00000104 00000+0 -25238-5 0 9995 2 37188 52.0040 259.5119 0000543 138.4076 235.2374 12.62265173716299 GLOBALSTAR M074 1 37189U 10054B 26118.66199632 -.00000110 00000+0 -32165-4 0 9992 2 37189 52.0017 258.7052 0000621 107.2103 265.6862 12.62267632716902 GLOBALSTAR M076 1 37190U 10054C 26118.79702308 -.00000099 00000+0 26417-4 0 9996 2 37190 52.0031 258.4917 0000396 104.1721 43.4909 12.62272428716631 GLOBALSTAR M077 1 37191U 10054D 26118.81930703 -.00000079 00000+0 -15678-4 0 9998 2 37191 51.9973 304.5998 0003309 86.3022 14.5070 11.67547503715370 GLOBALSTAR M075 1 37192U 10054E 26118.80090125 -.00000083 00000+0 11479-3 0 9991 2 37192 51.9955 300.5636 0000816 103.3934 1.1495 12.62266253715704 GLOBALSTAR M073 1 37193U 10054F 26118.54353225 -.00000104 00000+0 -14813-5 0 9998 2 37193 52.0056 215.4084 0000324 157.7584 215.6878 12.62266505717662 GLOBALSTAR M083 1 37739U 11033A 26118.39787097 -.00000082 00000+0 11881-3 0 9997 2 37739 51.9834 164.1481 0000195 196.4787 176.3499 12.62262832686668 GLOBALSTAR M088 1 37740U 11033B 26118.84835492 -.00000108 00000+0 -22949-4 0 9990 2 37740 52.0217 69.0826 0000502 56.8271 321.9984 12.62263166682262 GLOBALSTAR M091 1 37741U 11033C 26118.78550763 -.00000105 00000+0 -55162-5 0 9990 2 37741 52.0020 32.3120 0000570 83.7564 310.7870 12.62262818683044 GLOBALSTAR M085 1 37742U 11033D 26118.78195634 -.00000082 00000+0 12137-3 0 9999 2 37742 52.0145 343.5738 0000708 102.5398 336.0431 12.62262934683552 GLOBALSTAR M081 1 37743U 11033E 26118.87321880 -.00000073 00000+0 17293-3 0 9992 2 37743 51.9981 345.7892 0000670 83.1376 289.6519 12.62263790683711 GLOBALSTAR M089 1 37744U 11033F 26118.75461365 -.00000084 00000+0 11300-3 0 9998 2 37744 51.9936 300.3191 0000832 79.8110 294.2062 12.62266067684546 GLOBALSTAR M084 1 38040U 11080A 26118.55955008 -.00000075 00000+0 16059-3 0 9996 2 38040 51.9990 168.3673 0000209 53.8114 93.2928 12.62266736662498 GLOBALSTAR M080 1 38041U 11080B 26118.85298926 -.00000073 00000+0 16909-3 0 9991 2 38041 52.0042 169.1755 0000682 145.9157 25.0363 12.62268618662659 GLOBALSTAR M082 1 38042U 11080C 26118.78930992 -.00000081 00000+0 12766-3 0 9996 2 38042 52.0050 124.8628 0000327 144.6758 26.8594 12.62269398663354 GLOBALSTAR M092 1 38043U 11080D 26118.56999836 -.00000104 00000+0 10761-5 0 9996 2 38043 52.0084 215.9262 0000473 123.7640 250.0600 12.62266713661780 GLOBALSTAR M090 1 38044U 11080E 26118.73666433 -.00000085 00000+0 10658-3 0 9991 2 38044 52.0101 118.9625 0000082 69.0983 102.2068 12.62268359663465 GLOBALSTAR M086 1 38045U 11080F 26118.75904729 -.00000076 00000+0 15543-3 0 9995 2 38045 51.9873 118.9051 0000896 312.1427 218.5545 12.62285579663410 GLOBALSTAR M097 1 39072U 13005A 26118.19713074 -.00000106 00000+0 -14302-4 0 9992 2 39072 52.0067 35.5045 0000456 76.9182 283.1735 12.62260076610595 GLOBALSTAR M093 1 39073U 13005B 26118.48761032 -.00000100 00000+0 20079-4 0 9993 2 39073 52.0128 27.9508 0000338 82.0937 277.9968 12.62264646610583 GLOBALSTAR M094 1 39074U 13005C 26118.80439877 -.00000086 00000+0 97717-4 0 9995 2 39074 51.9962 301.1561 0000643 117.4709 242.6223 12.62267934612233 GLOBALSTAR M096 1 39075U 13005D 26118.81772091 -.00000082 00000+0 12413-3 0 9990 2 39075 52.0096 349.8770 0000664 96.6945 263.3998 12.62264441611157 GLOBALSTAR M078 1 39076U 13005E 26118.86981238 -.00000110 00000+0 -36643-4 0 9996 2 39076 51.9874 73.7904 0001017 130.9993 229.0961 12.62266041609783 GLOBALSTAR M095 1 39077U 13005F 26118.81744328 -.00000108 00000+0 -22010-4 0 9999 2 39077 52.0080 71.4852 0000349 125.9789 234.1110 12.62267388609638 GLOBALSTAR M087 1 52888U 22064A 26118.51415838 -.00000095 00000+0 48679-4 0 9990 2 52888 51.9992 213.6807 0000550 159.2973 200.7916 12.62268429184865